[[{"header":{"parameterUnit":"m.s-1","parameterCategory":1,"la1":30.2991,"la2":30.254,"lo1":-89.0895,"lo2":-89.0444,"dy":0.0017,"dx":0.0017,"nx":28,"ny":28,"refTime":"2023-08-07T03:00:00:Z","depth":0,"parameterNumber":2,"parameterNumberName":"U-component_of_WINDS"},"data":[0,0,0,0,0,0,0,0,0,0,0,0,0,0,0,0,0,0,0,0,0,0,0,0,0,0,0,0,0,0,0,0,0,0,0,0,0,0,0,0,0,0,0,0,0,0,0,0,0,0,0,0,0,0,0,0,0,0,1.1313,1.1314,0,1.1456,1.1457,1.1459,1.1505,1.1504,1.1504,1.1503,1.1653,1.1658,1.1662,0,0,0,0,0,0,0,0,0,0,0,0,0,1.1082,1.1086,1.1312,1.1314,1.1316,1.1455,1.1457,1.1459,1.1505,1.1504,1.1503,1.1503,1.1652,1.1657,1.1663,0,0,0,0,0,0,0,0,0,0,0,0,0,1.1199,1.1087,1.1312,1.1355,1.1361,1.1455,1.1457,1.146,1.1505,1.1504,1.1503,1.1502,1.165,1.1656,1.1663,1.1726,0,0,1.1684,1.1687,0,0,0,0,0,0,0,0,1.1192,1.1207,1.1347,1.1353,1.1359,1.1461,1.1431,1.1549,1.1505,1.145,1.1503,1.1502,1.159,1.1602,1.1631,1.1733,1.1739,1.1685,1.1689,1.1692,1.1694,0,0,0,0,0,0,0,1.1184,1.1202,1.1369,1.1349,1.1356,1.1369,1.1384,1.1454,1.1524,1.1455,1.1459,1.1475,1.1593,1.1624,1.1635,1.1741,1.1685,1.1691,1.1695,1.1698,1.1901,1.1903,0,0,0,0,0,0,1.1168,1.1194,1.1365,1.1373,1.1271,1.1374,1.1391,1.1429,1.1524,1.1537,1.1476,1.1477,1.1613,1.1627,1.164,1.172,1.1692,1.1699,1.1703,1.19,1.1902,1.1903,0,0,0,0,0,0,1.1163,1.1183,1.1359,1.1285,1.1308,1.1379,1.1421,1.1433,1.1464,1.1539,1.1552,1.1494,1.1613,1.1631,1.1704,1.1725,1.1702,1.1708,1.1899,1.1901,1.1902,1.1878,0,0,0,0,0,0,1.1156,1.1181,1.1204,1.1285,1.1312,1.1419,1.1423,1.1436,1.1475,1.1478,1.156,1.1573,1.1613,1.1693,1.1711,1.1735,1.1713,1.1897,1.19,1.1902,1.1877,1.1879,1.188,0,0,0,0,0,1.1148,1.1193,1.1205,1.1226,1.1343,1.142,1.1435,1.148,1.1477,1.1502,1.155,1.157,1.172,1.17,1.172,1.1747,1.1896,1.1899,1.1902,1.1877,1.1879,1.188,0,0,0,0,0,0,1.1114,1.1204,1.1219,1.1291,1.1347,1.1427,1.146,1.1481,1.154,1.154,1.1595,1.1613,1.1682,1.1722,1.1698,1.1812,1.1809,1.1816,1.1783,1.1786,1.1787,1.1776,1.1719,0,0,0,0,0,1.1115,1.1169,1.1245,1.1301,1.1329,1.1389,1.1425,1.1454,1.1515,1.1539,1.1593,1.1652,1.1713,1.1752,1.1812,1.1883,1.1902,1.1911,1.1913,1.1914,1.1919,1.196,1.1965,1.1912,1.1912,1.1912,0,0,1.1117,1.1173,1.1204,1.1296,1.1343,1.1398,1.1409,1.1468,1.1509,1.1549,1.1621,1.1662,1.1732,1.1804,1.1839,1.184,1.1938,1.1917,1.1917,1.1923,1.1963,1.1968,1.1973,1.1914,1.1914,1.1914,0,0,1.115,1.1197,1.1249,1.1296,1.1367,1.1407,1.1419,1.1496,1.1525,1.1597,1.1628,1.1679,1.1782,1.1831,1.1869,1.1919,1.194,1.1937,1.1945,1.1985,1.1989,1.1993,1.2011,1.2016,1.1942,1.1942,1.1942,0,1.1144,1.1228,1.1274,1.1331,1.137,1.1407,1.1461,1.1504,1.1591,1.1618,1.1617,1.1747,1.1796,1.1881,1.1893,1.1922,1.1939,1.1928,1.1984,1.1989,1.1993,1.2011,1.2017,1.1942,1.1942,1.1942,1.1942,0,1.1218,1.1275,1.1309,1.1391,1.1434,1.1489,1.1544,1.1583,1.1609,1.1649,1.1723,1.1783,1.1856,1.1878,1.1905,1.1967,1.1965,1.1973,1.1971,1.1996,1.2014,1.2021,1.194,1.1941,1.1941,1.1941,0,0,1.1233,1.1339,1.1351,1.1388,1.1469,1.1515,1.1571,1.1641,1.1673,1.1732,1.1781,1.1867,1.1876,1.1919,1.1951,1.1985,1.2021,1.199,1.1992,1.1993,1.2093,1.2086,1.2093,1.2035,1.2037,1.2038,1.2087,0,1.1276,1.1378,1.1421,1.1503,1.1557,1.1593,1.1642,1.1697,1.1736,1.1789,1.1833,1.1893,1.1899,1.1925,1.1961,1.2009,1.2042,1.2006,1.2082,1.2084,1.2063,1.2102,1.2095,1.2138,1.2094,1.2096,1.2096,0,1.134,1.1398,1.1485,1.1558,1.1583,1.1626,1.1694,1.1743,1.1807,1.1833,1.188,1.191,1.1972,1.1966,1.2052,1.2026,1.206,1.2089,1.2091,1.21,1.2092,1.2112,1.2153,1.216,1.2108,1.2107,1.2106,0,1.1342,1.1442,1.1507,1.1538,1.1626,1.1655,1.1693,1.1756,1.1795,1.1854,1.188,1.1946,1.1982,1.2033,1.2081,1.2072,1.2162,1.216,1.2186,1.2185,1.2204,1.2202,1.2251,1.2225,1.2225,1.2225,1.2225,0,1.1386,1.1438,1.1509,1.1549,1.1609,1.1658,1.1716,1.1756,1.1811,1.186,1.1896,1.1941,1.2001,1.2055,1.2092,1.2158,1.2174,1.2197,1.2207,1.2194,1.2191,1.2217,1.2215,1.2227,1.2226,1.2226,1.2226,0,1.1398,1.1448,1.1522,1.1598,1.1619,1.1659,1.1725,1.1766,1.1806,1.1868,1.1885,1.195,1.2014,1.2066,1.2151,1.2176,1.2245,1.2256,1.2223,1.2228,1.2251,1.2248,1.2318,1.233,1.2296,1.2296,1.2297,0,1.1423,1.1463,1.1544,1.1579,1.1616,1.1672,1.1712,1.1762,1.1802,1.1877,1.1909,1.1976,1.2032,1.2133,1.2188,1.2253,1.2266,1.2286,1.2276,1.2262,1.2266,1.2263,1.2267,1.2287,1.2287,1.2287,1.2287,0,1.1461,1.1483,1.1539,1.1603,1.1649,1.1703,1.1757,1.1784,1.1844,1.1887,1.1953,1.1996,1.2082,1.2148,1.2219,1.2259,1.2283,1.229,1.2299,1.2287,1.2266,1.2277,1.2226,1.2288,1.2288,1.2288,1.2288,1.2288,1.148,1.1518,1.158,1.1641,1.1687,1.1736,1.1778,1.1823,1.1879,1.1952,1.1979,1.2046,1.2109,1.2206,1.2246,1.23,1.2303,1.2316,1.232,1.2323,1.2321,1.2257,1.2314,1.2314,1.2314,1.2314,1.2314,0,1.152,1.1561,1.1617,1.1691,1.1739,1.1756,1.1817,1.1856,1.1915,1.1971,1.2025,1.21,1.2164,1.2224,1.2291,1.2323,1.2335,1.2339,1.2337,1.2346,1.2315,1.23,1.2327,1.2327,1.2327,1.2327,1.2327,1.2327,1.1546,1.161,1.164,1.1728,1.177,1.1835,1.1869,1.1915,1.196,1.2042,1.2095,1.2133,1.2191,1.2262,1.2322,1.2338,1.2361,1.2361,1.2379,1.235,1.2348,1.2346,1.2332,1.2365,1.2365,1.2406,1.2406,1.2406]},{"header":{"parameterUnit":"m.s-1","parameterCategory":1,"la1":30.2991,"la2":30.254,"lo1":-89.0895,"lo2":-89.0444,"dy":0.0017,"dx":0.0017,"nx":28,"ny":28,"refTime":"2023-08-07T03:00:00:Z","depth":0,"parameterNumber":3,"parameterNumberName":"V-component_of_WINDS"},"data":[0,0,0,0,0,0,0,0,0,0,0,0,0,0,0,0,0,0,0,0,0,0,0,0,0,0,0,0,0,0,0,0,0,0,0,0,0,0,0,0,0,0,0,0,0,0,0,0,0,0,0,0,0,0,0,0,0,0,4.7402,4.7402,0,4.7408,4.7408,4.7409,4.7413,4.7413,4.7413,4.7413,4.7419,4.7419,4.7419,0,0,0,0,0,0,0,0,0,0,0,0,0,4.7391,4.7391,4.7402,4.7402,4.7402,4.7408,4.7408,4.7409,4.7413,4.7413,4.7413,4.7413,4.7419,4.7419,4.7419,0,0,0,0,0,0,0,0,0,0,0,0,0,4.7397,4.7391,4.7402,4.7405,4.7405,4.7408,4.7408,4.7409,4.7413,4.7413,4.7413,4.7413,4.7419,4.7419,4.7419,4.742,0,0,4.742,4.742,0,0,0,0,0,0,0,0,4.7396,4.7397,4.7404,4.7405,4.7405,4.741,4.7407,4.7412,4.7413,4.741,4.7413,4.7413,4.7416,4.7416,4.7418,4.742,4.742,4.742,4.742,4.742,4.742,0,0,0,0,0,0,0,4.7396,4.7397,4.7404,4.7404,4.7405,4.7405,4.7406,4.7408,4.7413,4.741,4.7411,4.7411,4.7416,4.7417,4.7418,4.742,4.742,4.742,4.742,4.742,4.7422,4.7422,0,0,0,0,0,0,4.7395,4.7396,4.7404,4.7404,4.7401,4.7406,4.7407,4.7408,4.7413,4.7413,4.7411,4.7412,4.7417,4.7417,4.7418,4.7418,4.742,4.742,4.742,4.7422,4.7422,4.7422,0,0,0,0,0,0,4.7395,4.7396,4.7404,4.74,4.7402,4.7406,4.7408,4.7408,4.741,4.7413,4.7414,4.7412,4.7417,4.7418,4.7419,4.7418,4.742,4.7421,4.7422,4.7422,4.7422,4.7418,0,0,0,0,0,0,4.7395,4.7396,4.7396,4.74,4.7402,4.7405,4.7408,4.7408,4.741,4.741,4.7414,4.7415,4.7417,4.7419,4.7419,4.7419,4.7421,4.7423,4.7422,4.7422,4.7419,4.7418,4.7418,0,0,0,0,0,4.7394,4.7395,4.7396,4.7397,4.7403,4.7405,4.7406,4.7409,4.741,4.741,4.7413,4.7415,4.7418,4.7419,4.7419,4.7419,4.7423,4.7422,4.7422,4.7419,4.7418,4.7418,0,0,0,0,0,0,4.739,4.7396,4.7397,4.7399,4.7402,4.7406,4.7406,4.7408,4.741,4.7411,4.7414,4.7415,4.7416,4.7417,4.7418,4.7419,4.7421,4.7421,4.7418,4.7417,4.7417,4.7416,4.7421,0,0,0,0,0,4.739,4.7392,4.7396,4.7398,4.7399,4.7402,4.7404,4.7406,4.7408,4.7409,4.7412,4.7414,4.7416,4.7417,4.7418,4.7419,4.7419,4.7419,4.7418,4.7418,4.7418,4.7418,4.7417,4.7422,4.7422,4.7422,0,0,4.7389,4.7392,4.7393,4.7397,4.7399,4.7401,4.7403,4.7405,4.7406,4.741,4.7411,4.7413,4.7415,4.7416,4.7417,4.7418,4.7417,4.7418,4.7417,4.7418,4.7417,4.7417,4.7416,4.7422,4.7422,4.7422,0,0,4.7387,4.739,4.7391,4.7393,4.7396,4.7399,4.7399,4.7403,4.7404,4.7406,4.7408,4.7409,4.7412,4.7413,4.7415,4.7413,4.7414,4.7413,4.7411,4.7411,4.741,4.741,4.7409,4.7409,4.7413,4.7413,4.7413,0,4.7385,4.7388,4.7391,4.7393,4.7394,4.7398,4.7398,4.74,4.7404,4.7404,4.7405,4.7409,4.7411,4.7411,4.7411,4.7412,4.7412,4.7413,4.741,4.741,4.741,4.7409,4.7408,4.7413,4.7413,4.7413,4.7413,0,4.7385,4.7387,4.7388,4.7391,4.7392,4.7394,4.7397,4.7397,4.7399,4.7401,4.7402,4.7405,4.7407,4.7407,4.7409,4.7408,4.7408,4.741,4.7411,4.7409,4.7408,4.7408,4.7413,4.7413,4.7413,4.7413,0,0,4.7382,4.7387,4.7387,4.7388,4.7392,4.7393,4.7394,4.7396,4.7396,4.7398,4.7399,4.7401,4.7402,4.7403,4.7405,4.7405,4.7402,4.7406,4.7406,4.7405,4.7401,4.74,4.7399,4.7404,4.7404,4.7403,4.74,0,4.7381,4.7383,4.7386,4.7387,4.7388,4.7391,4.7391,4.7393,4.7395,4.7396,4.7398,4.7399,4.7401,4.7401,4.7401,4.7403,4.7402,4.7403,4.7403,4.7403,4.7403,4.7399,4.7397,4.7395,4.74,4.74,4.74,0,4.738,4.7382,4.7383,4.7386,4.7386,4.7387,4.7389,4.739,4.7392,4.7393,4.7394,4.7396,4.7396,4.7398,4.7398,4.7399,4.7399,4.74,4.74,4.74,4.7402,4.7398,4.7394,4.7393,4.74,4.74,4.74,0,4.7377,4.738,4.7381,4.7382,4.7385,4.7385,4.7387,4.7388,4.7389,4.739,4.7391,4.7392,4.7393,4.7393,4.7395,4.7396,4.7395,4.7397,4.7395,4.7395,4.7395,4.7395,4.739,4.7396,4.7396,4.7396,4.7396,0,4.7375,4.7376,4.7379,4.738,4.738,4.7383,4.7383,4.7385,4.7386,4.7387,4.7389,4.7389,4.7392,4.7392,4.7393,4.7393,4.7393,4.7394,4.7394,4.7394,4.7393,4.7394,4.7394,4.7396,4.7396,4.7396,4.7396,0,4.7372,4.7375,4.7376,4.7379,4.7379,4.7379,4.7381,4.7382,4.7383,4.7384,4.7384,4.7386,4.7387,4.7388,4.7389,4.739,4.7389,4.739,4.7389,4.7389,4.7387,4.7387,4.7382,4.7381,4.7387,4.7387,4.7387,0,4.7371,4.7372,4.7374,4.7375,4.7376,4.7377,4.7377,4.738,4.738,4.7382,4.7382,4.7382,4.7383,4.7383,4.7385,4.7385,4.7386,4.7384,4.7386,4.7385,4.7385,4.7385,4.7385,4.7384,4.7384,4.7384,4.7384,0,4.7369,4.7369,4.7371,4.7372,4.7373,4.7374,4.7375,4.7375,4.7377,4.7378,4.7378,4.7379,4.7379,4.738,4.738,4.7381,4.7382,4.7383,4.7383,4.7382,4.7381,4.7381,4.7387,4.7383,4.7383,4.7383,4.7383,4.7383,4.7366,4.7366,4.7368,4.7369,4.737,4.7371,4.7371,4.7372,4.7373,4.7374,4.7375,4.7375,4.7376,4.7377,4.7377,4.7377,4.7378,4.7378,4.7377,4.7377,4.7377,4.7381,4.7377,4.7377,4.7377,4.7377,4.7377,0,4.7363,4.7364,4.7365,4.7366,4.7367,4.7368,4.7369,4.737,4.737,4.7371,4.7371,4.7371,4.7371,4.7372,4.7372,4.7372,4.7373,4.7372,4.7372,4.7372,4.7376,4.7376,4.7371,4.7371,4.7371,4.7371,4.7371,4.7371,4.7362,4.7362,4.7363,4.7363,4.7364,4.7365,4.7365,4.7365,4.7366,4.7366,4.7366,4.7367,4.7368,4.7368,4.7368,4.7368,4.7368,4.7367,4.7367,4.7371,4.7372,4.7372,4.7372,4.7367,4.7367,4.7363,4.7363,4.7363]}]]